Flag for Germany Weather past 2 weeks in Nienburg (Weser), Lower Saxony, Germany

59 °F

Low clouds.

Feels Like: 59 °F
Forecast: 56 / 63 °F
Wind: 3 mph from East

Location: Hannover

Current Time: Oct 7, 2015 at 1:41:29 AM

Latest Report: Oct 7, 2015 at 1:00 AM

Visibility: 2 mi

Pressure: 29.72 "Hg

Humidity: 98%

Dew point: 58 °F

Location of Nienburg (Weser)Location

Historic Weather in Nienburg (Weser) — Graph


Nienburg (Weser) temperature yesterday

Maximum temperature yesterday: 63 °F (at 6:00 PM)
Minimum temperature yesterday: 54 °F (at 7:00 AM)
Average temperature yesterday: 58 °F

Past Weeks' High & Low Weather Summary

High66 °F (Oct 3, 5:00 PM)100% (Sep 27, 3:00 AM)30.70 "Hg (Sep 27, 3:00 AM)
Low35 °F (Oct 2, 6:00 AM)45% (Oct 1, 2:00 PM)29.56 "Hg (Sep 22, 7:00 PM)
Average53 °F82%30.17 "Hg
* Reported Sep 22 1:00 AM — Oct 6 11:00 PM, Nienburg (Weser), Weather by CustomWeather, © 2015

Note: Actual official high and low records may vary slightly from our data, if they occured in-between our weather recording intervals... More about our weather records


Nienburg (Weser) weather history for previous 24 hours

Time TempWeatherWind HumidityBarometerVisibility
11:00 PM
Tue, Oct 6
59 °FLight rain. Overcast.5 mph94%29.72 "Hg4 mi
10:00 PM60 °FLight rain. Overcast.3 mph93%29.72 "Hg4 mi
9:00 PM60 °FOvercast.5 mph92%29.71 "Hg9 mi
8:00 PM59 °FOvercast.3 mph93%29.71 "Hg9 mi
7:00 PM62 °FOvercast.5 mph84%29.70 "Hg19 mi
6:00 PM63 °FOvercast.6 mph81%29.69 "Hg19 mi
5:00 PM63 °FOvercast.5 mph82%29.68 "Hg19 mi
4:00 PM62 °FOvercast.6 mph81%29.69 "Hg16 mi
3:00 PM61 °FOvercast.5 mph85%29.69 "Hg11 mi
2:00 PM59 °FDrizzle. Overcast.6 mph91%29.70 "Hg5 mi
1:00 PM58 °FLow clouds.6 mph90%29.70 "Hg5 mi
12:00 PM56 °FLow clouds.6 mph94%29.70 "Hg4 mi
10:00 AM54 °FDrizzle. Low clouds.6 mph96%29.70 "Hg1 mi
9:00 AM54 °FFog.7 mph93%29.70 "Hg3 mi
8:00 AM54 °FLight rain. Overcast.6 mph92%29.72 "Hg2 mi
7:00 AM54 °FOvercast.5 mph90%29.73 "Hg4 mi
5:00 AM54 °FLight rain. Overcast.5 mph83%29.75 "Hg7 mi
4:00 AM54 °FOvercast.3 mph79%29.77 "Hg9 mi
3:00 AM54 °FOvercast.5 mph79%29.79 "Hg10 mi
2:00 AM55 °FOvercast.5 mph78%29.81 "Hg9 mi
1:00 AM54 °FOvercast.5 mph80%29.83 "Hg9 mi
Weather by CustomWeather, © 2015

See weather overviewHow to use our weather pages